Henderson, NV

4:57 PM PDT on May 24, 2018 (GMT -0700)
Henderson

Weather History for KHND - March, 2013

Change the Weather History Date:

Thursday, March 21, 2013

  Actual Average (KLAS) Record (KLAS)
Temperature  
Mean Temperature 66 °F -  
Max Temperature 77 °F 72 °F 92 °F (2004)
Min Temperature 54 °F 45 °F 26 °F (1955)
Growing Degree Days 16 (Base 50)    
Moisture  
Dew Point 18 °F    
Average Humidity 22    
Maximum Humidity 47    
Minimum Humidity 6    
Precipitation  
Precipitation 0.00 in - - ()
Sea Level Pressure  
Sea Level Pressure 29.78 in    
Wind  
Wind Speed 9 mph (SW)    
Max Wind Speed 22 mph    
Max Gust Speed 29 mph    
Visibility 10 miles    
Events      
Averages and records for this station are not official NWS values.
T = Trace of Precipitation, MM = Missing Value Source: NWS Daily Summary

Daily Weather History Graph

Daily Weather History Graph

Search for Another Location

Airport or City:

Astronomy

Mar. 21, 2013 Rise Set
Actual Time 6:42 AM PDT 6:53 PM PDT
Civil Twilight 6:16 AM PDT 7:19 PM PDT
Nautical Twilight 5:46 AM PDT 7:48 PM PDT
Astronomical Twilight 5:16 AM PDT 8:19 PM PDT
Moon 1:36 PM PDT (3/21) 2:57 AM PDT (3/21)
Length of Visible Light 13h 02m
Length of Day
12h 11m
Waxing Gibbous, 69% of the Moon is Illuminated
Mar 21
Waxing Gibbous
Mar 27
Full
Apr 2
Last Quarter
Apr 10
New
Apr 18
First Quarter

Hourly Weather History & Observations

Time (PDT) Temp. Dew Point Humidity Pressure Visibility Wind Dir Wind Speed Gust Speed Precip Events Conditions
12:56 AM 61.0 °F 32.9 °F 35% 29.78 in 10.0 mi SSW 5.8 mph - N/A   Clear
1:56 AM 59.0 °F 32.0 °F 36% 29.79 in 10.0 mi SSW 12.7 mph - N/A   Clear
2:56 AM 57.9 °F 32.0 °F 37% 29.79 in 10.0 mi SW 11.5 mph - N/A   Clear
3:56 AM 55.9 °F 32.9 °F 42% 29.78 in 10.0 mi SSW 12.7 mph - N/A   Clear
4:56 AM 55.9 °F 32.0 °F 40% 29.79 in 10.0 mi SW 15.0 mph - N/A   Clear
5:56 AM 54.0 °F 32.9 °F 45% 29.80 in 10.0 mi SSW 16.1 mph - N/A   Clear
6:56 AM 54.0 °F 34.0 °F 47% 29.82 in 10.0 mi SSW 15.0 mph - N/A   Clear
7:56 AM 56.8 °F 34.0 °F 42% 29.84 in 10.0 mi SSW 12.7 mph - N/A   Clear
8:56 AM 61.9 °F 34.0 °F 35% 29.84 in 10.0 mi SW 11.5 mph - N/A   Clear
9:56 AM 66.9 °F 29.1 °F 24% 29.86 in 10.0 mi Calm Calm - N/A   Clear
10:56 AM 72.0 °F 11.1 °F 10% 29.85 in 10.0 mi NNW 21.9 mph 28.8 mph N/A   Clear
11:56 AM 73.9 °F 10.0 °F 9% 29.84 in 10.0 mi NNW 16.1 mph 23.0 mph N/A   Clear
12:56 PM 75.9 °F 9.1 °F 8% 29.82 in 10.0 mi North 18.4 mph 24.2 mph N/A   Clear
1:56 PM 73.9 °F 12.0 °F 9% 29.80 in 10.0 mi Variable 4.6 mph - N/A   Clear
2:56 PM 75.9 °F 11.1 °F 8% 29.76 in 10.0 mi Calm Calm - N/A   Clear
3:56 PM 77.9 °F 4.1 °F 6% 29.74 in 10.0 mi North 10.4 mph - N/A   Clear
4:56 PM 75.2 °F 3.2 °F 6% 29.76 in 10.0 mi Calm Calm - N/A   Clear
5:56 PM 77.0 °F 3.0 °F 6% 29.71 in 10.0 mi Calm Calm - N/A   Clear
6:56 PM 72.0 °F 0.1 °F 6% 29.71 in 10.0 mi Calm Calm - N/A   Clear
7:56 PM 70.0 °F 2.1 °F 7% 29.71 in 10.0 mi Calm Calm - N/A   Clear
8:56 PM 61.9 °F 14.0 °F 15% 29.72 in 10.0 mi Calm Calm - N/A   Clear
9:56 PM 59.0 °F 8.1 °F 13% 29.73 in 10.0 mi SSW 4.6 mph - N/A   Clear
10:56 PM 56.8 °F 9.1 °F 15% 29.73 in 10.0 mi South 5.8 mph - N/A   Clear
11:56 PM 54.9 °F 16.2 °F 22% 29.72 in 10.0 mi SSE 8.1 mph - N/A   Clear